Location: Boda
(47.1872°N, 9.5454°E)
Time: 18:37:19
(UTC+00:00)

Cosmos 405 - Pass Details

Date: 14 May 2021
Orbit: 446 x 460 km, 81.3° (Epoch: 16 June)

Event Time Altitude Azimuth Distance (km) Brightness Sun altitude
Rises 02:12:54 0° 350° (N) 2,498 7.3 -13.4°
Reaches altitude 10° 02:15:00 10° 353° (N) 1,616 6.3 -13.1°
Maximum altitude 02:18:31 73° 78° (ENE) 485 3.2 -12.7°
Drops below altitude 10° 02:22:00 10° 164° (SSE) 1,593 5.4 -12.3°
Enters shadow 02:23:17 - 165° (SSE) 2,132 6.0 -12.1°
